Regional Weather Roundup
Issued by NWS

Home | Current Version | Previous Version | Graphics & Text | Print | Product List | Glossary On
Versions: 1 2 3 4 5 6 7 8 9 10 11 12 13 14 15 16 17 18 19 20 21 22 23 24 25 26 27 28 29 30 31 32 33 34 35 36 37 38 39 40 41 42 43 44 45 46 47 48 49 50
000
ASUS43 KMKX 252259
RWRWI

WISCONSIN REGIONAL WEATHER ROUNDUP
NATIONAL WEATHER SERVICE MILWAUKEE/SULLIVAN WI
600 PM CDT WED APR 25 2018

NOTE: "FAIR" INDICATES FEW OR NO CLOUDS BELOW 12,000 FEET WITH NO
SIGNIFICANT WEATHER AND/OR OBSTRUCTIONS TO VISIBILITY.

WIZ001-002-006>008-014>016-023>028-260000-
NORTHWEST WISCONSIN

CITY           SKY/WX    TMP DP  RH WIND       PRES   REMARKS
SUPERIOR ARPT  FAIR      59  22  23 SW3       30.00F
ASHLAND        FAIR      48  30  49 N6        30.01F
HAYWARD        FAIR      57  21  24 VRB5      30.01F
SIREN          FAIR      57  19  22 W7        30.03F
CUMBERLAND     FAIR      54  21  28 CALM      30.03F
RICE LAKE      FAIR      55  21  27 SW5       30.04F
CHETEK         FAIR      55  25  31 CALM      30.04S
LADYSMITH      FAIR      56  23  27 W5        30.04S
EAU CLAIRE     FAIR      58  25  28 CALM      30.02F
MENOMONIE      FAIR      59  21  23 W3        30.03F
NEW RICHMOND   FAIR      58  19  22 W5        30.04F
OSCEOLA        FAIR      58  21  23 CALM      30.06F
$$

WIZ003>005-009-010-017-018-260000-
NORTH CENTRAL WISCONSIN

CITY           SKY/WX    TMP DP  RH WIND       PRES   REMARKS
MANITOWISH WTR FAIR      49  20  31 N3        30.01F
ARBOR VITAE    FAIR      52  19  27 CALM      30.01F
WOODRUFF       FAIR      52  19  27 CALM      30.01F
RHINELANDER    FAIR      53  19  26 VRB3      30.01F
EAGLE RIVER    FAIR      52  15  23 NW5       30.00F
LAND O LAKES   FAIR      51  15  24 CALM      30.02F
PHILLIPS       FAIR      54  22  28 W3        30.01F
TOMAHAWK       FAIR      53  17  23 W5        30.02F
MEDFORD        FAIR      53  24  32 CALM      30.01F
MERRILL        FAIR      55  21  26 W5        30.02F
$$

WIZ029-030-035-036-043>047-260000-
CENTRAL WISCONSIN

CITY           SKY/WX    TMP DP  RH WIND       PRES   REMARKS
WAUSAU         FAIR      55  22  27 W6        29.99F
MOSINEE        MOSUNNY   54  27  35 W5        30.03F
MARSHFIELD     FAIR      54  28  36 SW3       30.01F
STEVENS POINT  FAIR      53  25  33 W5        30.03S
WAUPACA        FAIR      58  24  26 NW8       30.02F
WAUTOMA        FAIR      56  26  31 NW8       30.03F
WISC RAPIDS    FAIR      56  27  32 NW7       30.04S
CAMP DOUGLAS   NOT AVBL
$$

WIZ011>013-019>022-031-037>040-048>050-260000-
NORTHEAST WISCONSIN

CITY           SKY/WX    TMP DP  RH WIND       PRES   REMARKS
ANTIGO         FAIR      52  26  36 W7        30.02F
SHAWANO        FAIR      58  26  29 NW5       30.00F
OCONTO         FAIR      48  29  48 SE6       30.03F
STURGEON BAY   FAIR      47  29  49 E7        30.04F
GREEN BAY      FAIR      55  33  43 W7        30.02F
MANITOWOC      FAIR      46  30  53 SE8       30.04F
APPLETON       MOSUNNY   54  23  30 NW7       30.01F
CLINTONVILLE   FAIR      56  24  29 CALM      30.01F
OSHKOSH        FAIR      51  32  48 E6        30.02F
$$

WIZ032>034-041-042-053>061-260000-
SOUTHWEST WISCONSIN

CITY           SKY/WX    TMP DP  RH WIND       PRES   REMARKS
LA CROSSE      FAIR      61  28  28 W8        30.02F
SPARTA         FAIR      60  26  27 NW7       30.03F
VIROQUA        FAIR      58  30  34 N6        30.03S
BOSCOBEL       FAIR      64  28  25 VRB5      30.02F
PRAIRIE DU CHI FAIR      61  19  19 N7        30.02F
PLATTEVILLE    FAIR      62  30  29 N3        30.02F
$$

WIZ056-057-062-063-064-067-068-260000-
SOUTH CENTRAL WISCONSIN

CITY           SKY/WX    TMP DP  RH WIND       PRES   REMARKS
REEDSBURG      FAIR      58  26  29 W5        30.02F
BARABOO/DELLS  FAIR      58  20  22 N6        30.03S
LONE ROCK      NOT AVBL
MINERAL POINT  FAIR      61  23  23 N5        30.01F
MADISON        FAIR      59  26  28 VRB3      30.01F
MIDDLETON      FAIR      61  25  24 NW7       30.02F
WATERTOWN      FAIR      56  31  38 N5        30.02F
MONROE         FAIR      59  27  29 N10       30.00F
JANESVILLE     MOSUNNY   61  25  25 NE9       30.02S
$$

WIZ051-052-058>065-066-070>072-260000-
SOUTHEAST WISCONSIN

CITY           SKY/WX    TMP DP  RH WIND       PRES   REMARKS
MILWAUKEE      FAIR      44  30  57 NE10      30.06F
WAUKESHA       SUNNY     46  28  49 NE8       30.04F
MILWAUKEE/TIMM SUNNY     46  27  46 E8        30.06S
RACINE         FAIR      44  30  57 NE13G20   30.07F
BURLINGTON     FAIR      50  31  47 E7        30.04S
KENOSHA        FAIR      46  29  51 NE12      30.05F
FOND DU LAC    FAIR      52  31  44 NE8       30.03F
SHEBOYGAN      FAIR      47  32  56 E9        30.04S
WEST BEND      FAIR      50  32  50 E7        30.03F
JUNEAU         FAIR      54  31  40 N6        30.04S
$$

LSZ147-162-260000-
LAKE SUPERIOR

STATION/POSITION TIME  TEMP    WIND        PRES    WAVE
                       AIR SEA DIR/SP/G            HT/PER
                 (UTC) (F)     (DEG/KT/KT) (MB)    (FT/S)
DEVILS ISLAND    2200   41        CALM     1017.7F
SAXON HARBOR     2240   41      CALM  /  2 1016.6F
$$

LMZ867-665-643>646-260000-
LAKE MICHIGAN

STATION/POSITION TIME  TEMP    WIND        PRES    WAVE
                       AIR SEA DIR/SP/G            HT/PER
                 (UTC) (F)     (DEG/KT/KT) (MB)    (FT/S)
NORTHPORT PIER   2240   42                 1016.9F
KEWAUNEE LAKESHO 2230   42     150/  2/  4 1016.8F
SHEBOYGAN LAKESH 2200   38      60/  9/ 10 1017.9F
PORT WASHINGTON  2240   42      50/  2/  4 1018.6F
MILWAUKEE LAKESH 2230   41      70/  2/  2   N/A
KENOSHA   LAKESH 2200   39                 1018.3
$$

TC  - TEMPERATURE IN CELSIUS
VSB - VISIBILITY IN STATUTE MILES
WCI - WIND CHILL INDEX
HX  - HEAT INDEX




USA.gov is the U.S. government's official web portal to all federal, state and local government web resources and services.